Skip Page Navigation
NASA JPL Caltech
NASA Logo - Jet Propulsion Laboratory + View the NASA Portal
+ Center for Near-Earth Object Studies
JPL Home Earth Solar System Stars & Galaxies Technology
JPL Solar System Dynamics
BODIES ORBITS EPHEMERIDES TOOLS PHYSICAL DATA DISCOVERY FAQ SITE MAP
IMPORTANT: The SSD Announcement email list is now available. Major changes are coming in the near future, including possible hostname and/or URL changes. To be notified of such changes, subscribe to this email list.

Please visit this page for more details.


JPL Small-Body Database Browser
Search: [ help ]  
441193 (2007 UQ8)
Classification: Main-belt Asteroid          SPK-ID: 2441193
Ephemeris | Orbit Diagram | Orbital Elements | Mission Design | Physical Parameters | Discovery Circumstances ]

[ show orbit diagram ]
Orbital Elements at Epoch 2459000.5 (2020-May-31.0) TDB
Reference: JPL 9 (heliocentric ecliptic J2000)
 Element Value Uncertainty (1-sigma)   Units 
e .239597149097366 6.0967e-07  
a 2.607066618533724 2.0024e-07 au
q 1.982420889226133 1.7398e-06 au
i 11.32949053744271 1.75e-05 deg
node 315.8227627354494 2.8059e-05 deg
peri 21.71995576803515 7.7328e-05 deg
M 33.68742519123019 7.8768e-05 deg
tp 2458856.622813219234
(2020-Jan-08.12281322)
0.00032288 TDB
period 1537.540697962263
4.21
0.00017714
4.85e-07
d
yr
n .2341401437224497 2.6975e-08 deg/d
Q 3.231712347841315 2.4821e-07 au
  Orbit Determination Parameters
   # obs. used (total)      107  
   data-arc span      2942 days (8.05 yr)  
   first obs. used      2007-09-20  
   last obs. used      2015-10-10  
   planetary ephem.      DE431  
   SB-pert. ephem.      SB431-N16  
   condition code      1  
   norm. resid. RMS      .49906  
   source      ORB  
   producer      Otto Matic  
   solution date      2017-Apr-09 12:40:48  

Additional Information
 Earth MOID = .976952 au 
 Jupiter MOID = 2.16872 au 
 T_jup = 3.344 
[ show covariance matrix ]

Ephemeris | Orbit Diagram | Orbital Elements | Mission Design | Physical Parameters | Discovery Circumstances ]

Physical Parameter Table
Parameter Symbol Value Units Sigma Reference Notes
absolute magnitude H 17.4   n/a MPO248842  

441193 (2007 UQ8)          Discovered 2007-Sep-20 by CSS at Catalina
Reference: Last Updated: 2015-09-02
Ephemeris | Orbit Diagram | Orbital Elements | Mission Design | Physical Parameters | Discovery Circumstances ]
ABOUT SSD CREDITS/AWARDS PRIVACY/COPYRIGHT GLOSSARY LINKS
FirstGov 2020-May-29 01:33 UT
(server date/time)  
NASA Home Page
Site Manager:   Ryan S. Park
Webmaster  Alan B. Chamberlin